DW8022 Weather Reports


time (UTC)temp
F
wind
direction
speed
knots
gust
knots
rain 1hr
in
rain 24hr
in
rain mn
in
humidity
%
barometer
mb
20260505111132 69 115 0.0 1.7 0.00 0.00 0.00 88 1018.2
20260505095620 70 65 0.0 0.0 0.00 0.00 0.00 85 1018.0
20260505094100 70 65 0.0 0.9 0.00 0.00 0.00 85 1017.8
20260505092605 71 65 0.0 0.9 0.00 0.00 0.00 84 1017.8
20260505091045 71 65 0.0 1.7 0.00 0.00 0.00 83 1017.6
20260505085534 72 65 0.0 0.0 0.00 0.00 0.00 83 1017.5
20260505082524 73 65 0.0 1.7 0.00 0.00 0.00 81 1016.7
20260505081004 73 65 0.0 0.0 0.00 0.00 0.00 80 1016.8
20260505075454 74 65 0.0 2.6 0.00 0.00 0.00 79 1016.7
20260505073941 74 11 0.0 1.7 0.00 0.00 0.00 78 1016.4
20260505072417 75 348 0.0 0.9 0.00 0.00 0.00 76 1016.1
20260505065413 76 348 0.0 2.6 0.00 0.00 0.00 76 1016.0
20260505063913 76 344 0.9 4.3 0.00 0.00 0.00 77 1016.0
20260505062415 76 29 0.0 2.6 0.00 0.00 0.00 77 1015.6
20260505060856 77 35 0.9 2.6 0.00 0.00 0.00 76 1015.7
20260505055333 78 10 0.9 3.5 0.00 0.00 0.00 74 1015.7
20260505053807 78 12 0.9 3.5 0.00 0.00 0.00 73 1015.5
20260505052300 79 12 1.7 4.3 0.00 0.00 0.00 71 1015.7
20260505050802 80 327 1.7 5.2 0.00 0.00 0.00 70 1015.5
20260505040743 81 44 0.9 3.5 0.00 0.00 0.00 66 1015.2
20260505035228 81 47 0.9 4.3 0.00 0.00 0.00 65 1015.1
20260505034429 81 312 0.9 4.3 0.00 0.00 0.00 67 1015.2
20260505032226 81 259 0.9 3.5 0.00 0.00 0.00 66 1015.4
20260505031410 80 236 0.9 2.6 0.00 0.00 0.00 66 1015.2
20260505025159 80 35 0.0 3.5 0.00 0.00 0.00 67 1015.6
20260505024420 80 5 0.9 2.6 0.00 0.00 0.00 64 1015.6
20260505022159 79 319 0.9 4.3 0.00 0.00 0.00 63 1015.8
20260505020655 80 250 0.9 2.6 0.00 0.00 0.00 64 1016.2
20260505015202 80 84 0.9 4.3 0.00 0.00 0.00 62 1016.4
20260505013655 80 84 1.7 3.5 0.00 0.00 0.00 65 1016.5
20260505012130 80 123 0.9 2.6 0.00 0.00 0.00 65 1017.0
20260505010629 79 348 0.9 3.5 0.00 0.00 0.00 68 1017.5
20260505005117 77 257 1.7 6.1 0.00 0.00 0.00 69 1017.6
20260505003619 77 265 1.7 5.2 0.00 0.00 0.00 71 1017.8
20260505003526 78 125 1.7 6.1 0.00 0.00 0.00 70 1017.9
20260505000558 76 209 1.7 7.0 0.00 0.00 0.00 74 1018.1
20260504235054 75 255 1.7 5.2 0.00 0.00 0.00 77 1018.1
20260504233559 75 176 1.7 4.3 0.00 0.00 0.00 77 1018.0
20260504232055 74 342 1.7 2.6 0.00 0.00 0.00 81 1018.1
20260504230543 73 282 0.9 1.7 0.00 0.00 0.00 86 1018.2
20260504225028 70 31 0.0 0.0 0.00 0.00 0.00 88 1018.4
20260504224212 69 31 0.0 1.7 0.00 0.00 0.00 90 1018.2
20260504222658 68 306 0.0 0.0 0.00 0.00 0.00 92 1018.2
20260504220518 66 306 0.0 0.0 0.00 0.00 0.00 93 1018.1
20260504220338 65 306 0.0 0.0 0.00 0.00 0.00 94 1018.1
20260504210444 62 306 0.0 0.0 0.00 0.00 0.00 92 1017.9
20260504204944 62 306 0.0 0.0 0.00 0.00 0.00 92 1017.7
20260504204150 62 306 0.0 0.0 0.00 0.00 0.00 92 1017.7
20260504201949 62 306 0.0 0.0 0.00 0.00 0.00 91 1017.6
20260504201825 62 306 0.0 0.0 0.00 0.00 0.00 92 1017.4
20260504193424 62 306 0.0 0.0 0.00 0.00 0.00 92 1017.3
20260504192715 62 306 0.0 0.0 0.00 0.00 0.00 91 1017.0
20260504190355 63 5 0.0 0.0 0.00 0.00 0.00 91 1016.9
20260504184825 63 5 0.0 0.9 0.00 0.00 0.00 91 1017.0
20260504183327 63 5 0.0 0.0 0.00 0.00 0.00 91 1016.9
20260504181829 63 5 0.0 0.0 0.00 0.00 0.00 91 1016.7
20260504180306 63 5 0.0 0.0 0.00 0.00 0.00 91 1016.6
20260504175456 63 5 0.0 0.0 0.00 0.00 0.00 91 1016.6
20260504173304 63 5 0.0 0.0 0.00 0.00 0.00 91 1016.5
20260504170253 64 5 0.0 0.0 0.00 0.01 0.00 91 1016.7
20260504160227 64 266 0.0 0.0 0.00 0.01 0.00 91 1017.0
20260504150219 65 266 0.0 0.0 0.00 0.01 0.00 90 1017.2
20260504140130 66 266 0.0 0.9 0.00 0.01 0.00 90 1017.7